Kimball, NE

2:34 AM MDT on October 22, 2017 (GMT -0600)
Kimball Municipal-Arraj

Weather History for KIBM - July, 2014

Change the Weather History Date:

Friday, July 4, 2014

  Actual Average (KSNY) Record (KSNY)
Temperature  
Mean Temperature 73 °F -  
Max Temperature 90 °F 85 °F 100 °F (2012)
Min Temperature 56 °F 54 °F 40 °F (1997)
Cooling Degree Days 8    
Growing Degree Days 23 (Base 50)    
Moisture  
Dew Point 49 °F    
Average Humidity 49    
Maximum Humidity 89    
Minimum Humidity 15    
Precipitation  
Precipitation 0.01 in - - ()
Sea Level Pressure  
Sea Level Pressure 30.12 in    
Wind  
Wind Speed 7 mph (SSW)    
Max Wind Speed 16 mph    
Max Gust Speed 23 mph    
Visibility 10 miles    
Events Rain , Thunderstorm    
Averages and records for this station are not official NWS values.
T = Trace of Precipitation, MM = Missing Value Source: NWS Daily Summary

Daily Weather History Graph

Daily Weather History Graph

Search for Another Location

Airport or City:

Trip Planner

Search our weather history database for the weather conditions in past years. The results will help you decide how hot, cold, wet, or windy it might be!

Date:

Astronomy

Jul. 04, 2014 Rise Set
Actual Time 6:27 AM CDT 9:30 PM CDT
Civil Twilight 5:53 AM CDT 10:04 PM CDT
Nautical Twilight 5:11 AM CDT 10:46 PM CDT
Astronomical Twilight 4:20 AM CDT 11:36 PM CDT
Moon 1:29 PM CDT (7/4) 12:50 AM CDT (7/4)
Length of Visible Light 16h 10m
Length of Day
15h 03m
Waxing Crescent, 42% of the Moon is Illuminated
Jul 4
Waxing Crescent
Jul 5
First Quarter
Jul 12
Full
Jul 18
Last Quarter
Jul 26
New

Hourly Weather History & Observations

Time (CDT) Temp. Dew Point Humidity Pressure Visibility Wind Dir Wind Speed Gust Speed Precip Events Conditions
12:15 AM 68.9 °F 58.3 °F 69% 30.15 in 10.0 mi SE 10.4 mph - N/A   Clear
12:35 AM 68.2 °F 58.1 °F 70% 30.13 in 10.0 mi SSE 10.4 mph - N/A   Clear
12:55 AM 67.5 °F 57.4 °F 70% 30.12 in 10.0 mi SSE 9.2 mph - N/A   Clear
1:15 AM 66.6 °F 56.8 °F 71% 30.12 in 10.0 mi South 5.8 mph - N/A   Clear
1:35 AM 64.8 °F 56.3 °F 74% 30.12 in 10.0 mi SSE 3.5 mph - N/A   Clear
1:55 AM 63.0 °F 55.6 °F 77% 30.13 in 10.0 mi Calm Calm - N/A   Clear
2:15 AM 62.2 °F 55.2 °F 78% 30.12 in 10.0 mi SSE 8.1 mph - N/A   Clear
2:35 AM 62.6 °F 55.8 °F 78% 30.12 in 10.0 mi SSE 6.9 mph - N/A   Clear
2:55 AM 61.7 °F 55.4 °F 80% 30.12 in 10.0 mi Calm Calm - N/A   Clear
3:15 AM 59.4 °F 53.8 °F 82% 30.12 in 10.0 mi South 4.6 mph - N/A   Clear
3:35 AM 59.7 °F 55.9 °F 87% 30.12 in 10.0 mi South 8.1 mph - N/A   Clear
3:55 AM 59.9 °F 56.5 °F 88% 30.11 in 10.0 mi South 8.1 mph - N/A   Clear
4:15 AM 59.9 °F 56.7 °F 89% 30.11 in 10.0 mi South 5.8 mph - N/A   Clear
4:35 AM 60.3 °F 56.7 °F 88% 30.10 in 10.0 mi South 6.9 mph - N/A   Clear
4:55 AM 59.5 °F 55.8 °F 87% 30.09 in 10.0 mi South 8.1 mph - N/A   Clear
5:15 AM 59.2 °F 54.3 °F 84% 30.10 in 10.0 mi South 5.8 mph - N/A   Clear
5:35 AM 57.7 °F 53.4 °F 85% 30.11 in 10.0 mi SW 5.8 mph - N/A   Clear
5:55 AM 58.5 °F 52.5 °F 81% 30.10 in 10.0 mi South 8.1 mph - N/A   Clear
6:15 AM 58.1 °F 51.8 °F 80% 30.11 in 10.0 mi SW 4.6 mph - N/A   Clear
6:35 AM 57.4 °F 50.9 °F 79% 30.11 in 10.0 mi Calm Calm - N/A   Clear
6:55 AM 56.3 °F 50.5 °F 81% 30.11 in 10.0 mi SW 5.8 mph - N/A   Clear
7:15 AM 57.4 °F 50.9 °F 79% 30.12 in 10.0 mi SW 3.5 mph - N/A   Clear
7:35 AM 58.8 °F 50.5 °F 74% 30.12 in 10.0 mi WSW 8.1 mph - N/A   Clear
7:55 AM 59.9 °F 50.2 °F 70% 30.11 in 10.0 mi WSW 6.9 mph - N/A   Clear
8:15 AM 64.8 °F 49.6 °F 58% 30.12 in 10.0 mi WSW 10.4 mph - N/A   Clear
8:35 AM 68.2 °F 50.4 °F 53% 30.12 in 10.0 mi SW 8.1 mph - N/A   Clear
8:55 AM 71.8 °F 53.1 °F 52% 30.13 in 10.0 mi West 6.9 mph - N/A   Clear
9:15 AM 73.4 °F 52.3 °F 48% 30.13 in 10.0 mi West 8.1 mph - N/A   Clear
9:35 AM 75.6 °F 52.9 °F 45% 30.14 in 10.0 mi WNW 8.1 mph - N/A   Clear
9:55 AM 76.6 °F 51.3 °F 41% 30.14 in 10.0 mi West 6.9 mph - N/A   Clear
10:15 AM 74.3 °F 51.4 °F 45% 30.14 in 10.0 mi WNW 4.6 mph - N/A   Clear
10:35 AM 77.4 °F 51.8 °F 41% 30.14 in 10.0 mi WNW 5.8 mph - N/A   Clear
11:15 AM 79.9 °F 51.8 °F 38% 30.13 in 10.0 mi West 4.6 mph - N/A   Clear
11:35 AM 80.1 °F 52.3 °F 38% 30.13 in 10.0 mi West 3.5 mph - N/A   Clear
11:55 AM 82.9 °F 50.4 °F 32% 30.13 in 10.0 mi WNW 5.8 mph - N/A   Clear
12:15 PM 85.1 °F 49.5 °F 29% 30.13 in 10.0 mi North 6.9 mph - N/A   Clear
12:35 PM 85.3 °F 47.1 °F 26% 30.12 in 10.0 mi North 6.9 mph - N/A   Clear
12:55 PM 87.4 °F 43.7 °F 22% 30.12 in 10.0 mi WNW 6.9 mph - N/A   Clear
1:15 PM 88.9 °F 37.0 °F 16% 30.13 in 10.0 mi NW 8.1 mph 16.1 mph N/A   Clear
1:35 PM 88.7 °F 36.1 °F 16% 30.12 in 10.0 mi North 9.2 mph - N/A   Clear
1:55 PM 90.3 °F 36.5 °F 15% 30.12 in 10.0 mi North 8.1 mph - N/A   Clear
2:15 PM 90.3 °F 36.9 °F 15% 30.11 in 10.0 mi NNW 6.9 mph - N/A   Clear
2:35 PM 87.8 °F 36.9 °F 16% 30.10 in 10.0 mi NNW 6.9 mph - N/A   Scattered Clouds
2:55 PM 85.3 °F 41.9 °F 22% 30.11 in 10.0 mi West 15.0 mph 23.0 mph N/A Rain Light Rain
3:15 PM 86.2 °F 42.4 °F 22% 30.10 in 10.0 mi SSW 3.5 mph - 0.01 in   Scattered Clouds
3:35 PM 86.0 °F 43.3 °F 22% 30.08 in 10.0 mi Calm Calm - 0.01 in   Clear
3:55 PM 85.6 °F 49.5 °F 29% 30.08 in 10.0 mi South 4.6 mph - 0.01 in   Clear
4:15 PM 86.2 °F 49.5 °F 28% 30.09 in 10.0 mi South 5.8 mph - N/A   Scattered Clouds
4:35 PM 85.3 °F 48.0 °F 27% 30.10 in 10.0 mi SE 11.5 mph - N/A   Clear
4:55 PM 86.0 °F 46.4 °F 25% 30.09 in 10.0 mi SE 9.2 mph - N/A Thunderstorm Clear
5:15 PM 86.2 °F 47.5 °F 26% 30.09 in 10.0 mi SE 8.1 mph - N/A   Clear
5:35 PM 85.5 °F 46.8 °F 26% 30.09 in 10.0 mi South 9.2 mph - N/A   Clear
5:55 PM 85.1 °F 45.7 °F 25% 30.08 in 10.0 mi SSE 6.9 mph - N/A   Clear
6:15 PM 84.7 °F 45.5 °F 25% 30.08 in 10.0 mi South 8.1 mph - N/A   Clear
6:35 PM 83.5 °F 47.1 °F 28% 30.09 in 10.0 mi South 5.8 mph - N/A   Clear
6:55 PM 82.4 °F 48.2 °F 30% 30.09 in 10.0 mi SSE 6.9 mph - N/A   Scattered Clouds
7:15 PM 80.8 °F 50.7 °F 35% 30.10 in 10.0 mi ESE 4.6 mph - N/A Thunderstorm Thunderstorm
7:35 PM 80.6 °F 43.5 °F 27% 30.10 in 10.0 mi East 10.4 mph 19.6 mph N/A   Scattered Clouds
7:55 PM 79.5 °F 41.9 °F 26% 30.11 in 10.0 mi SE 16.1 mph 23.0 mph N/A Thunderstorm Scattered Clouds
8:15 PM 78.8 °F 44.1 °F 29% 30.11 in 10.0 mi SE 12.7 mph - N/A   Scattered Clouds
8:35 PM 78.6 °F 46.2 °F 32% 30.12 in 10.0 mi South 5.8 mph - N/A   Mostly Cloudy
8:55 PM 75.2 °F 50.0 °F 41% 30.15 in 10.0 mi NNW 3.5 mph - N/A   Overcast
9:15 PM 76.6 °F 45.5 °F 33% 30.15 in 10.0 mi NNW 4.6 mph - N/A   Overcast
9:35 PM 74.1 °F 47.8 °F 39% 30.14 in 10.0 mi West 4.6 mph - N/A Rain Light Rain
9:55 PM 72.7 °F 48.2 °F 42% 30.12 in 10.0 mi SSW 6.9 mph - N/A   Scattered Clouds
10:15 PM 72.0 °F 48.2 °F 43% 30.13 in 10.0 mi SW 5.8 mph - N/A   Clear
10:35 PM 70.2 °F 49.1 °F 47% 30.12 in 10.0 mi SW 8.1 mph - N/A   Clear
10:55 PM 69.3 °F 47.5 °F 46% 30.14 in 10.0 mi South 8.1 mph - N/A   Clear
11:15 PM 69.3 °F 45.9 °F 43% 30.14 in 10.0 mi South 9.2 mph - N/A   Clear
11:35 PM 68.4 °F 45.5 °F 44% 30.14 in 10.0 mi South 10.4 mph - N/A   Clear
11:55 PM 67.5 °F 45.5 °F 45% 30.14 in 10.0 mi SSW 8.1 mph - N/A   Clear